TimeMST,TemperatureF,Dew PointF,Humidity,Sea Level PressureIn,VisibilityMPH,Wind Direction,Wind SpeedMPH,Gust SpeedMPH,PrecipitationIn,Events,Conditions,WindDirDegrees,DateUTC
12:53 AM,28.9,16.0,58,29.87,10.0,North,-9999.0,-,N/A,,Partly Cloudy,0,2013-03-04 07:53:00
1:53 AM,28.0,17.1,63,29.89,9.0,North,-9999.0,-,N/A,,Overcast,0,2013-03-04 08:53:00
2:53 AM,26.1,12.0,55,29.92,10.0,North,-9999.0,-,N/A,,Overcast,0,2013-03-04 09:53:00
3:53 AM,21.9,12.0,66,29.94,10.0,North,-9999.0,-,N/A,,Scattered Clouds,0,2013-03-04 10:53:00
4:53 AM,19.9,10.9,68,29.99,10.0,North,-9999.0,-,N/A,,Clear,0,2013-03-04 11:53:00
4:55 AM,21.2,10.4,63,29.87,15.0,WNW,23.0,-,N/A,,Scattered Clouds,300,2013-03-04 11:55:00
5:53 AM,19.9,10.9,68,30.04,10.0,North,-9999.0,-,N/A,,Clear,0,2013-03-04 12:53:00
5:54 AM,19.4,10.4,68,29.90,15.0,NW,24.2,-,N/A,,Scattered Clouds,310,2013-03-04 12:54:00
6:53 AM,19.9,12.0,71,30.06,10.0,North,-9999.0,-,N/A,,Partly Cloudy,0,2013-03-04 13:53:00
6:55 AM,19.4,12.2,74,29.92,4.0,NW,28.8,-,N/A,Snow,Blowing Snow,310,2013-03-04 13:55:00
7:27 AM,19.4,14.0,80,29.93,1.8,North,-9999.0,-,N/A,Snow,Light Snow,0,2013-03-04 14:27:00
7:33 AM,19.4,15.8,86,29.93,0.8,North,-9999.0,-,0.00,Snow,Light Snow,0,2013-03-04 14:33:00
7:37 AM,19.4,15.8,86,29.93,0.2,North,-9999.0,-,0.00,Fog-Snow,Light Snow,0,2013-03-04 14:37:00
7:53 AM,19.9,16.0,85,30.07,0.2,North,-9999.0,-,0.00,Fog-Snow,Light Snow,0,2013-03-04 14:53:00
7:57 AM,19.4,15.8,86,29.93,1.2,NW,25.3,-,N/A,Snow,Blowing Snow,310,2013-03-04 14:57:00
8:52 AM,19.4,15.8,86,29.96,0.2,NW,33.4,-,N/A,Snow,Snow,310,2013-03-04 15:52:00
8:53 AM,19.9,16.0,85,30.10,0.2,North,-9999.0,-,0.01,Fog-Snow,Light Snow,0,2013-03-04 15:53:00
9:52 AM,21.2,12.2,68,30.00,0.2,NW,33.4,-,N/A,Snow,Blowing Snow,310,2013-03-04 16:52:00
9:53 AM,21.0,15.1,78,30.13,0.5,North,-9999.0,-,0.00,Snow,Snow,0,2013-03-04 16:53:00
10:19 AM,21.2,15.8,80,30.03,0.8,North,-9999.0,-,0.00,Snow,Light Snow,0,2013-03-04 17:19:00
10:30 AM,21.2,15.8,80,30.04,0.5,North,-9999.0,-,0.00,Snow,Snow,0,2013-03-04 17:30:00
10:46 AM,21.2,15.8,80,30.04,1.0,North,-9999.0,-,0.00,Snow,Light Snow,0,2013-03-04 17:46:00
10:53 AM,21.0,15.1,78,30.17,0.8,North,-9999.0,-,0.00,Snow,Light Snow,0,2013-03-04 17:53:00
10:55 AM,21.2,12.2,68,30.04,0.8,WNW,35.7,-,N/A,Snow,Light Snow,300,2013-03-04 17:55:00
11:08 AM,21.2,14.0,74,30.04,2.5,North,-9999.0,-,0.00,Snow,Light Snow,0,2013-03-04 18:08:00
11:16 AM,21.2,14.0,74,30.05,3.0,North,-9999.0,-,0.00,Snow,Light Snow,0,2013-03-04 18:16:00
11:53 AM,21.9,15.1,75,30.22,3.0,North,-9999.0,-,0.00,Snow,Light Snow,0,2013-03-04 18:53:00
11:57 AM,21.2,15.8,80,30.09,1.8,North,-9999.0,-,0.00,Snow,Light Snow,0,2013-03-04 18:57:00
11:59 AM,21.2,14.0,74,30.08,1.1,NW,27.6,-,N/A,Snow,Blowing Snow,320,2013-03-04 18:59:00
12:20 PM,21.2,15.8,80,30.11,0.5,North,-9999.0,-,0.00,Snow,Snow,0,2013-03-04 19:20:00
12:25 PM,21.2,17.6,86,30.11,0.2,North,-9999.0,-,0.00,Fog-Snow,Snow,0,2013-03-04 19:25:00
12:53 PM,21.0,16.0,81,30.26,0.2,North,-9999.0,-,0.00,Snow,Heavy Snow,0,2013-03-04 19:53:00
12:55 PM,21.2,15.8,80,30.10,0.2,NNW,26.5,-,N/A,Snow,Snow,330,2013-03-04 19:55:00
1:19 PM,21.2,15.8,80,30.13,0.2,North,-9999.0,-,0.01,Snow,Heavy Snow,0,2013-03-04 20:19:00
1:42 PM,21.2,15.8,80,30.14,0.5,North,-9999.0,-,0.01,Snow,Snow,0,2013-03-04 20:42:00
1:48 PM,21.2,15.8,80,30.15,0.8,North,-9999.0,-,0.01,Snow,Light Snow,0,2013-03-04 20:48:00
1:49 PM,21.2,15.8,80,30.15,0.8,North,-9999.0,-,0.01,Snow,Light Snow,0,2013-03-04 20:49:00
1:53 PM,21.0,16.0,81,30.29,0.8,North,-9999.0,-,0.01,Snow,Light Snow,0,2013-03-04 20:53:00
1:55 PM,21.2,15.8,80,30.13,0.8,NNW,20.7,-,N/A,Snow,Light Snow,330,2013-03-04 20:55:00
2:06 PM,21.2,17.6,86,30.15,2.0,North,-9999.0,-,0.00,Snow,Light Snow,0,2013-03-04 21:06:00
2:16 PM,21.2,15.8,80,30.15,1.8,North,-9999.0,-,0.00,Snow,Light Snow,0,2013-03-04 21:16:00
2:25 PM,21.2,15.8,80,30.15,2.5,North,-9999.0,-,N/A,Snow,Light Snow,0,2013-03-04 21:25:00
2:33 PM,21.2,15.8,80,30.15,5.0,North,-9999.0,-,0.00,Snow,Light Snow,0,2013-03-04 21:33:00
2:53 PM,21.9,15.1,75,30.30,6.0,North,-9999.0,-,0.00,Snow,Light Snow,0,2013-03-04 21:53:00
3:00 PM,21.2,14.0,74,30.15,0.8,NW,21.9,-,N/A,Snow,Light Snow,320,2013-03-04 22:00:00
3:11 PM,23.0,15.8,74,30.17,2.5,North,-9999.0,-,0.00,Snow,Light Snow,0,2013-03-04 22:11:00
3:18 PM,23.0,14.0,68,30.17,8.0,North,-9999.0,-,0.00,Snow,Light Snow,0,2013-03-04 22:18:00
3:53 PM,21.9,14.0,72,30.34,9.0,North,-9999.0,-,0.00,,Overcast,0,2013-03-04 22:53:00
3:59 PM,23.0,12.2,63,30.18,10.0,NW,20.7,-,N/A,Snow,Light Snow,320,2013-03-04 22:59:00
4:53 PM,21.9,12.9,68,30.38,10.0,North,-9999.0,-,N/A,,Partly Cloudy,0,2013-03-04 23:53:00
4:59 PM,23.0,12.2,63,30.22,25.0,NNW,16.1,-,N/A,,Partly Cloudy,330,2013-03-04 23:59:00
5:53 PM,19.9,12.0,71,30.41,10.0,North,-9999.0,-,N/A,,Clear,0,2013-03-05 00:53:00
5:58 PM,19.4,10.4,68,30.24,25.0,NNW,9.2,-,N/A,,Partly Cloudy,330,2013-03-05 00:58:00
6:53 PM,18.0,12.0,78,30.44,10.0,North,-9999.0,-,N/A,,Clear,0,2013-03-05 01:53:00
6:58 PM,17.6,12.2,79,30.27,15.0,NNW,9.2,-,N/A,,Partly Cloudy,340,2013-03-05 01:58:00
7:53 PM,15.1,10.0,80,30.47,10.0,North,-9999.0,-,N/A,,Clear,0,2013-03-05 02:53:00
7:57 PM,15.8,10.4,79,30.28,15.0,NNW,8.1,-,N/A,,Partly Cloudy,340,2013-03-05 02:57:00
8:53 PM,14.0,10.0,84,30.48,10.0,North,-9999.0,-,N/A,,Clear,0,2013-03-05 03:53:00
9:00 PM,15.8,10.4,79,30.29,15.0,West,6.9,-,N/A,,Clear,270,2013-03-05 04:00:00
9:53 PM,15.1,10.0,80,30.49,10.0,North,-9999.0,-,N/A,,Scattered Clouds,0,2013-03-05 04:53:00
10:00 PM,15.8,10.4,79,30.33,15.0,West,6.9,-,N/A,,Clear,280,2013-03-05 05:00:00
10:02 PM,15.8,10.4,79,30.30,10.0,North,-9999.0,-,N/A,,Mostly Cloudy,0,2013-03-05 05:02:00
10:53 PM,16.0,10.9,81,30.48,10.0,North,-9999.0,-,N/A,,Overcast,0,2013-03-05 05:53:00